Regional Weather Roundup
Issued by NWS

Home | Current Version | Previous Version | Graphics & Text | Print | Product List | Glossary Off
Versions: 1 2 3 4 5 6 7 8 9 10 11 12 13 14 15 16 17 18 19 20 21 22 23 24 25 26 27 28 29 30 31 32 33 34 35 36 37 38 39 40 41 42 43 44 45 46 47 48 49 50

953
ASUS43 KLOT 231009
RWRIL

ILLINOIS REGIONAL WEATHER ROUNDUP
NATIONAL WEATHER SERVICE CHICAGO/ROMEOVILLE IL
500 AM CDT SUN JUL 23 2017

NOTE: "FAIR" INDICATES FEW OR NO CLOUDS BELOW 12,000 FEET WITH NO
SIGNIFICANT WEATHER AND/OR OBSTRUCTIONS TO VISIBILITY.

* THESE STATIONS ARE NOT UNDER NWS QUALITY CONTROL. THEY ALSO MAY NOT
  REPORT WEATHER SUCH AS PRECIPITATION OR FOG.

ILZ001-002-007-009-015-016-024-231100-
NORTHWEST ILLINOIS

CITY           SKY/WX    TMP DP  RH WIND       PRES   REMARKS
MOLINE         MOCLDY    73  71  93 W5        29.83S
STERLING*      PTCLDY    72  72 100 W5        29.82R FOG
SAVANNA*       FOG       70  70  99 CALM      29.83R VSB 3/4
$$

ILZ003-004-008-010-011-017-018-231100-
NORTH CENTRAL ILLINOIS

CITY           SKY/WX    TMP DP  RH WIND       PRES   REMARKS
ROCKFORD       CLEAR     74  72  93 NW5       29.81S
FREEPORT*      CLEAR     71  71  99 W3        29.84R FOG
ROCHELLE*      MOCLDY    73  73  99 W6        29.82R
DE KALB*       MOCLDY    73  73  97 W6        29.82R
PERU*          CLOUDY   N/A N/A N/A W7        29.82R
$$

ILZ005-006-012>014-019>023-231100-
NORTHEAST ILLINOIS

CITY           SKY/WX    TMP DP  RH WIND       PRES   REMARKS
CHICAGO-OHARE  PTCLDY    71  68  90 CALM      29.78S
CHICAGO-MIDWAY CLOUDY    74  70  87 SW5       29.78S
AURORA         CLOUDY    74  73  97 SE3       29.80R FOG
LANSING*       CLOUDY    72  69  90 CALM      29.80R
JOLIET*        MOCLDY    75  73  94 CALM      29.80S
WAUKEGAN       PTCLDY    68  68 100 SW3       29.78S FOG
DUPAGE AIRPORT PTCLDY    70  70 100 CALM      29.79R FOG
WHEELING       PTCLDY    73  72  96 CALM      29.80R
MORRIS*        CLOUDY    74  73  96 CALM      29.79R
ROMEOVILLE*    PTCLDY    73  69  89 CALM      29.80S
NORTHERLY ISL    N/A     72  69  90 CALM        N/A
$$

LMZ740>746-231100-
SOUTHERN LAKE MICHIGAN

STATION/POSITION SKY/WX   TEMP    WIND        PRES    VSBY  WAVE
                          AIR SEA DIR/SP/G                  HT/PER
                          (F)     (DEG/KT/KT) (MB)    (MI)  (FT/S)
SOUTHERN BUOY              70 70  120/  2/  4 1008.5          0
WILMETTE HARBOR            72 73  210/  2/  4   N/A           0
HARRISON CRIB              76     290/  4/  4   N/A
BURNHAM HARBOR             73                   N/A
CALUMET HARBOR             73     190/  1/  2 1008.3R
BURNS HARBOR               73     170/  2/  2 1009.5R
MICHIGAN CITY              72     140/  2/  3   N/A
MICHIGAN CITY 6N           73 75  160/  4/  4   N/A           0
ST. JOSEPH                 73 74  120/  2/  2 1008.6          0
$$

ILZ025>027-034>036-040-047-049-050-058-095>099-231100-
WEST-CENTRAL ILLINOIS

CITY           SKY/WX    TMP DP  RH WIND       PRES   REMARKS
QUINCY         CLOUDY    75  65  70 W7        29.91F
GALESBURG*     CLOUDY    74  74  99 W6        29.86S
MACOMB*        CLOUDY    75  74  97 W9        29.90R
JACKSONVILLE*  CLOUDY    76  67  73 W13G18    29.91R
PITTSFIELD*    RAIN      72  68  88 S7        29.94R
$$

ILZ028>032-037-038-041>044-048-051>054-059>061-231100-
CENTRAL ILLINOIS

CITY           SKY/WX    TMP DP  RH WIND       PRES   REMARKS
PONTIAC        CLOUDY    75  75  99 NW5       29.82S
BLOOMINGTON    CLOUDY    76  73  91 NW9       29.84R
DECATUR        CLOUDY    78  76  93 W5        29.82R HX  81
PEORIA         CLOUDY    77  76  96 W7        29.83S
LACON*         CLOUDY    75  75  99 CALM      29.82R
LINCOLN*       CLOUDY    77  77  99 CALM      29.85R
SPRINGFIELD    CLOUDY    80  78  94 W12       29.86R HX  88
TAYLORVILLE    CLOUDY    73  67  81 W22G35    29.88R
$$

ILZ033-039-045-046-055>057-062-063-231100-
EAST-CENTRAL ILLINOIS

CITY           SKY/WX    TMP DP  RH WIND       PRES   REMARKS
CHAMPAIGN      MOCLDY    76  75  97 NW7       29.81R
RANTOUL*       CLOUDY    76  76  99 W3        29.81R
MATTOON        CLOUDY    73  73 100 NW5       29.78S
PARIS*         CLOUDY    71  71 100 CALM      29.80S FOG
$$

ILZ079-100>102-231100-
SOUTHWEST ILLINOIS

CITY           SKY/WX    TMP DP  RH WIND       PRES   REMARKS
ALTON          RAIN      71  66  85 NW16G25   29.88S
BELLEVILLE     MOCLDY    72  67  86 NW13      29.87F
CAHOKIA*       TSTM      77  63  61 N18G31    29.86S
SPARTA*        CLOUDY    73  67  81 NW17G31   29.87R
$$

ILZ064>066-069>071-074>076-080>082-084>086-088>090-092>094-231100-
SOUTH-CENTRAL ILLINOIS

CITY           SKY/WX    TMP DP  RH WIND       PRES   REMARKS
CARBONDALE     CLOUDY    82  76  81 W13G21    29.82R HX  89
CAIRO*         CLEAR     80  75  86 SW6       29.83R HX  84
EFFINGHAM*     CLOUDY    78  77  96 CALM      29.81R HX  81
MARION         MOCLDY    84  75  74 SW7       29.82R HX  92
MT. VERNON     TSTM      72  70  94 VRB3G32   29.87R VSB 1
CENTRALIA*     TSTM      70  70  99 NW21G39   29.89R
SALEM*         TSTM      72  68  87 W29G41    29.95R
METROPOLIS*    PTCLDY    81  75  83 SW7       29.83F HX  86
$$

ILZ067-068-072-073-078-083-087-091-231100-
SOUTHEAST ILLINOIS

CITY           SKY/WX    TMP DP  RH WIND       PRES   REMARKS
LAWRENCEVILLE  CLOUDY    74  73  97 S9        29.80R
FLORA*         CLOUDY    79  76  90 W7        29.81R HX  84
FAIRFIELD*     CLOUDY    80  76  88 CALM      29.78R HX  85
HARRISBURG*    MOCLDY    79  76  90 SW8       29.79S HX  84
ROBINSON*      CLOUDY    72  70  96 S7        29.81R
CARMI*         PTCLDY    82  75  81 W7G16     29.77R HX  88
$$

ABBREVIATIONS USED IN REMARKS
   TC - TEMPERATURE IN CELSIUS
  WCI - WIND CHILL INDEX
   HX - HEAT INDEX
  VSB - VISIBILITY
$$





USA.gov is the U.S. government's official web portal to all federal, state and local government web resources and services.